Showing default

YUNHAI 2-1B, 43910

Orbit data source: Space-Track

YUNHAI 2-1B, 43910 is a payload satellite owned by CASC (CN) in LEO that was launched on Sat, 29 Dec 2018 UTC via a CHANG ZHENG 2D/YZ-3 launch vehicle from the Jiuquan Satellite Launch Center, China (JSC). Payload-class satellites include a variety of spacecraft equipped with specific instruments for various scientific and technological missions. These include communications satellites like Starlink; space stations such as the ISS; scientific satellites like the Hubble; Earth observation satellites from companies like Planet Labs, Umbra, and HawkEye 360; GPS; miniature CubeSats for education and research; and military/defense satellites.

Loading next visibility...
Identifier
43910, 2018-112B
Orbit
LEO
Country
Flag of CNCN / PRC
Related business
Manufacturer
DFH Shenzhen
Mission
Operational Defense Meteo Radio Occ.
Bus & Motor
YH-2, Unknown motor
Mass
~100 kg wet, ~100 kg dry
Launch date (UTC)
2018-12-29 (7 years ago)
Launch vehicle
CHANG ZHENG 2D/YZ-3
Launch site
Jiuquan Satellite Launch Center, China (JSC)
Object type
Payload
Rocket body
Debris
Shape & HBR
Box + 2 Pan, 0.5 m
Radar Cross Section
0.166 m², Large (>1 m²)

Expand to show TLE details & history
Last TLE update: 8 hours ago

TLE from 8 hours ago
0 YUNHAI 2-1B
1 43910U 18112B   25258.28173106  .00000207  00000-0  14501-3 0  9993
2 43910  50.0103 194.6185 0005087 338.3871  21.6829 14.28835342350933
Epoch: 2025-09-15T06:45Z
TLE epoch observation values (Epoch: 2025-09-15T06:45:41.563Z)
Latitude
-0.00001°
Longitude
98.70668°
Altitude
792.768 km
Speed
7.46 km/s
True Right ascension
12h 58m 28s
True Declination
0° 00' 00"
Sunlit
Object was in daylight at epoch
Visualization orbit readout
Latitude
Unknown
Longitude
Unknown
Altitude
Unknown
Speed
Unknown
Apparent Right ascension
Unknown
Apparent Declination
Unknown
Sunlit
N/A
Visualization observer readout
Local Sidereal Time
07:39:24
Azimuth
Unknown
Elevation
Unknown
Doppler factor
Unknown
Orbital elements
Apogee altitude
800.014 km
Perigee altitude
792.715 km
Semi-major axis
7,174.502 km
Eccentricity
0.00051
Inclination
50.0103°
RAAN
194.6185°
Arg. of periapsis
338.3871°
True anomaly
21.70445°
Mean anomaly
21.6829°
Eccentric anomaly
21.69367°
Mean motion
3.57154 °/min
Orbital period
100.8 mins
BSTAR
0.00014501
Loading maneuver chart data...
Computing Atmospheric mass density...
Loading historical data...
Loading historical data...
Loading historical data...
Loading historical data...
Loading historical data...
Loading historical data...
Loading historical data...

Documentation

Showing up to 5 results
|